Location: Newark
(27.2452°N, 107.0032°W)
Time: 10:29:34
(UTC+00:00)

Hubble Space Telescope - Pass Details

Date: 25 December 2019
Orbit: 536 x 540 km, 28.5° (Epoch: 22 January)

Event Time Altitude Azimuth Distance (km) Brightness Sun altitude
Exits shadow 12:57:24 13° 251° (WSW) 1,614 2.7 -12.7°
Maximum altitude 13:00:04 22° 205° (SSW) 1,190 2.5 -12.1°
Drops below altitude 10° 13:03:17 10° 153° (SSE) 1,780 4.1 -11.4°
Sets 13:05:55 0° 138° (SE) 2,669 5.6 -10.9°
